Location: Newark
(7.0858°N, 171.3717°E)
Time: 19:26:02
(UTC+00:00)

Tiros 1 - Pass Details

Date: 27 November 2020
Orbit: 630 x 663 km, 48.4° (Epoch: 18 January)

Event Time Altitude Azimuth Distance (km) Brightness Sun altitude
Rises 13:13:40 0° 312° (NW) 2,923 - -71.2°
Reaches altitude 10° 13:16:03 10° 307° (NW) 2,011 - -70.8°
Maximum altitude 13:20:31 50° 232° (SW) 806 - -70.0°
Drops below altitude 10° 13:24:59 10° 156° (SSE) 2,001 - -69.3°
Sets 13:27:21 0° 151° (SSE) 2,907 - -68.8°
